Change the Weather History Date:

Tuesday, September 25, 2012

  Actual Average Record
Temperature  
Mean Temperature 64 °F 69 °F  
Max Temperature 77 °F 77 °F 94 °F (1933)
Min Temperature 51 °F 62 °F 46 °F (1950)
Degree Days  
Heating Degree Days 1 1  
Month to date heating degree days 4 3  
Since 1 July heating degree days 4 3  
Cooling Degree Days 0 5  
Month to date cooling degree days 204 207  
Year to date cooling degree days 1752 1542  
Growing Degree Days 14 (Base 50)    
Moisture  
Dew Point 48 °F    
Average Humidity 55    
Maximum Humidity 77    
Minimum Humidity 33    
Precipitation  
Precipitation 0.00 in 0.14 in 2.57 in (2008)
Month to date precipitation 1.19 4.06  
Year to date precipitation 33.87 36.00  
Snow  
Snow 0.00 in 0.00 in 0.00 in (2002)
Month to date snowfall 0.0 0.0  
Since 1 July snowfall 0.0 0.0  
Snow Depth 0.00 in    
Sea Level Pressure  
Sea Level Pressure 30.21 in    
Wind  
Wind Speed 6 mph (SSW)    
Max Wind Speed 14 mph    
Max Gust Speed 20 mph    
Visibility 10 miles    
Events      
T = Trace of Precipitation, MM = Missing Value Source: NWS Daily Summary

Daily Weather History Graph

Daily Weather History Graph

Search for Another Location

Airport or City:

Trip Planner

Search our weather history database for the weather conditions in past years. The results will help you decide how hot, cold, wet, or windy it might be!

Date:

Astronomy

Sep. 25, 2012 Rise Set
Actual Time 6:55 AM EDT 6:56 PM EDT
Civil Twilight 6:29 AM EDT 7:22 PM EDT
Nautical Twilight 5:59 AM EDT 7:52 PM EDT
Astronomical Twilight 5:28 AM EDT 8:22 PM EDT
Moon 4:14 PM EDT (9/25) 2:20 AM EDT (9/25)
Length of Visible Light 12h 52m
Length of Day
12h 00m
Waxing Gibbous, 80% of the Moon is Illuminated
Sep 25
Waxing Gibbous
Sep 29
Full
Oct 8
Last Quarter
Oct 15
New
Oct 21
First Quarter

Hourly Weather History & Observations

Time (EDT) Temp. Dew Point Humidity Pressure Visibility Wind Dir Wind Speed Gust Speed Precip Events Conditions
12:51 AM 55.0 °F 46.0 °F 72% 30.21 in 10.0 mi SSW 3.5 mph - N/A   Clear
1:51 AM 55.0 °F 46.9 °F 74% 30.21 in 10.0 mi South 3.5 mph - N/A   Clear
2:51 AM 53.1 °F 46.0 °F 77% 30.20 in 10.0 mi SW 3.5 mph - N/A   Clear
3:51 AM 53.1 °F 46.0 °F 77% 30.20 in 10.0 mi SSW 3.5 mph - N/A   Clear
4:51 AM 52.0 °F 45.0 °F 77% 30.21 in 10.0 mi SSW 3.5 mph - N/A   Clear
5:51 AM 53.1 °F 45.0 °F 74% 30.23 in 10.0 mi SSW 3.5 mph - N/A   Clear
6:51 AM 53.1 °F 46.0 °F 77% 30.25 in 10.0 mi SSW 4.6 mph - N/A   Clear
7:51 AM 55.0 °F 48.0 °F 77% 30.25 in 10.0 mi SSW 3.5 mph - N/A   Clear
8:51 AM 63.0 °F 48.9 °F 60% 30.26 in 10.0 mi South 5.8 mph - N/A   Clear
9:51 AM 68.0 °F 48.9 °F 50% 30.26 in 10.0 mi South 11.5 mph - N/A   Clear
10:51 AM 70.0 °F 48.9 °F 47% 30.25 in 10.0 mi South 8.1 mph - N/A   Clear
11:51 AM 72.0 °F 48.0 °F 43% 30.25 in 10.0 mi SSW 4.6 mph - N/A   Clear
12:51 PM 73.9 °F 45.0 °F 35% 30.23 in 10.0 mi Variable 6.9 mph - N/A   Clear
1:51 PM 75.0 °F 46.0 °F 36% 30.22 in 10.0 mi Variable 5.8 mph - N/A   Clear
2:51 PM 75.9 °F 44.1 °F 32% 30.19 in 10.0 mi Variable 5.8 mph - N/A   Clear
3:51 PM 75.9 °F 46.0 °F 35% 30.18 in 10.0 mi Variable 6.9 mph - N/A   Clear
4:51 PM 75.0 °F 46.0 °F 36% 30.19 in 10.0 mi SW 10.4 mph - N/A   Clear
5:51 PM 73.9 °F 46.0 °F 37% 30.20 in 10.0 mi SW 10.4 mph - N/A   Clear
6:51 PM 68.0 °F 48.9 °F 50% 30.21 in 10.0 mi SSW 5.8 mph - N/A   Clear
7:51 PM 66.9 °F 50.0 °F 54% 30.19 in 10.0 mi South 5.8 mph - N/A   Clear
8:51 PM 66.0 °F 51.1 °F 59% 30.19 in 10.0 mi South 6.9 mph - N/A   Clear
9:51 PM 66.0 °F 53.1 °F 63% 30.16 in 10.0 mi SSE 12.7 mph 18.4 mph N/A   Clear
10:51 PM 64.9 °F 55.9 °F 73% 30.19 in 10.0 mi SSW 6.9 mph - N/A   Clear
11:51 PM 64.0 °F 55.9 °F 75% 30.19 in 10.0 mi SSW 3.5 mph - N/A   Clear